This is the latest recevied weather packets stored in our database for station/object WB4ZUT. If no packets are shown the sender has not sent any weather packets the latest 1 day(s).
| Time | Temp. | Humidity | Pressure | Rain* | Wind** | Luminosity | Snow |
|---|---|---|---|---|---|---|---|
| 1778046721 | 9.44° C | 99% | 1010 hPa | 1.27 mm | 0.45 m/s, 68° | 0 W/m² | - |
| 1778046418 | 9.44° C | 99% | 1009.6 hPa | 0 mm | 0.45 m/s, 329° | 0 W/m² | - |
| 1778046114 | 9.44° C | 99% | 1009.7 hPa | 0 mm | 1.34 m/s, 28° | 0 W/m² | - |
| 1778045812 | 9.44° C | 99% | 1009.4 hPa | 0 mm | 0.45 m/s, 56° | 0 W/m² | - |
| 1778045522 | 9.44° C | 99% | 1009.7 hPa | 0 mm | 0.45 m/s, 52° | 0 W/m² | - |
| 1778045208 | 9.44° C | 99% | 1009.4 hPa | 0 mm | 0.89 m/s, 42° | 0 W/m² | - |
| 1778044906 | 9.44° C | 99% | 1009.3 hPa | 0 mm | 0.89 m/s, 35° | 0 W/m² | - |
| 1778044603 | 9.44° C | 99% | 1009 hPa | 0 mm | 0 m/s | 0 W/m² | - |
| 1778044299 | 9.44° C | 99% | 1009.4 hPa | 0 mm | 0 m/s | 0 W/m² | - |
| 1778043997 | 9.44° C | 99% | 1009.4 hPa | 0 mm | 0 m/s | 0 W/m² | - |
| 1778043694 | 9.44° C | 99% | 1009.3 hPa | 1.78 mm | 1.79 m/s, 6° | 0 W/m² | - |
| 1778043391 | 9.44° C | 99% | 1009.5 hPa | 1.78 mm | 1.34 m/s, 351° | 0 W/m² | - |
| 1778043087 | 9.44° C | 99% | 1009.5 hPa | 1.78 mm | 0 m/s | 0 W/m² | - |
| 1778042785 | 9.44° C | 99% | 1009.5 hPa | 1.78 mm | 0 m/s | 0 W/m² | - |
| 1778042482 | 9.44° C | 99% | 1009.2 hPa | 0 mm | 0.45 m/s, 45° | 0 W/m² | - |
| 1778042179 | 9.44° C | 99% | 1008.8 hPa | 0 mm | 2.24 m/s, 36° | 0 W/m² | - |
| 1778041877 | 9.44° C | 99% | 1008.4 hPa | 0 mm | 1.34 m/s, 56° | 0 W/m² | - |
| 1778041576 | 9.44° C | 99% | 1008.7 hPa | 0 mm | 0 m/s | 0 W/m² | - |
| 1778041273 | 9.44° C | 99% | 1008.7 hPa | 0 mm | 0.45 m/s, 12° | 0 W/m² | - |
| 1778040972 | 9.44° C | 99% | 1008.5 hPa | 0 mm | 0.89 m/s, 341° | 0 W/m² | - |
| 1778040668 | 9.44° C | 99% | 1008.7 hPa | 0 mm | 2.24 m/s, 357° | 0 W/m² | - |
| 1778040366 | 9.44° C | 99% | 1008.5 hPa | 1.27 mm | 0.45 m/s, 63° | 0 W/m² | - |
| 1778040062 | 10° C | 99% | 1008.5 hPa | 0 mm | 0 m/s | 0 W/m² | - |
| 1778039759 | 9.44° C | 99% | 1008.5 hPa | 0 mm | 0.89 m/s, 314° | 0 W/m² | - |
| 1778039456 | 9.44° C | 99% | 1008.8 hPa | 1.78 mm | 2.24 m/s, 52° | 0 W/m² | - |
* Rain latest hour (hover to see other rain measurements)
** Current wind speed in m/s (hover to see current wind gust speed)